Regional Weather Roundup
Issued by NWS Jackson, KY

Home | Current Version | Previous Version | Graphics & Text | Print | Product List | Glossary On
Versions: 1 2 3 4 5 6 7 8 9 10 11 12 13 14 15 16 17 18 19 20 21 22 23 24 25 26 27 28 29 30 31 32 33 34 35 36 37 38 39 40 41 42 43 44 45 46 47 48 49 50
000
ASUS43 KJKL 222211
RWRJKL

EAST KENTUCKY HOURLY WEATHER ROUNDUP
NATIONAL WEATHER SERVICE JACKSON KY
600 PM EDT WED OCT 22 2014

NOTE: "FAIR" INDICATES FEW OR NO CLOUDS BELOW 12,000 FEET WITH
NO SIGNIFICANT WEATHER AND/OR OBSTRUCTIONS TO VISIBILITY.

* THESE REPORTS ARE NOT UNDER NWS QUALITY CONTROL AND MAY NOT
  REPORT WEATHER SUCH AS PRECIPITATION AND FOG.

KYZ079-080-083-085-087-088-110-112-115-119-120-222300
...EASTERN KENTUCKY...

CITY           SKY/WX    TMP DP  RH WIND       PRES   REMARKS
JACKSON        CLOUDY    49  41  74 VRB3      30.23S
LONDON         CLOUDY    50  40  68 NW3       30.24S
SOMERSET*      CLOUDY    48  37  66 NE9       30.27R
MONTICELLO*    CLEAR     54  42  63 NE9       30.26R
MIDDLESBORO*   CLOUDY    49  41  71 N3        30.24S
HARLAN APT*    CLOUDY    46  39  76 CALM      30.22F
HAZARD APT*    CLOUDY    50  43  76 CALM      30.23F
BLACK MTN*       N/A     36  36 100 N8          N/A  WCI  29
PIKEVILLE APT* CLOUDY    46  43  87 CALM      30.22S
BIG SANDY*     CLOUDY    49  43  79 CALM      30.22S
MOREHEAD APT*  CLOUDY    52  41  66 N6        30.26S
$$

KYZ035-036-041-042-044-050-067-078-099-222300
...CENTRAL KENTUCKY...

CITY           SKY/WX    TMP DP  RH WIND       PRES   REMARKS
MT STERLING*   CLOUDY    52  43  71 NE3       30.25F
FLEMING/MASON* CLOUDY    50  41  71 N6        30.26S
DANVILLE*      CLOUDY    50  41  71 SE3       30.26R
RICHMOND*      CLOUDY    50  41  71 CALM      30.24F
LEXINGTON      CLOUDY    56  42  59 NE8       30.25S
FRANKFORT      CLEAR     55  39  54 N6        30.24R
$$

KYZ091>093-OHZ055-061-077-WVZ005-015-034-035-042-222300
...SOUTHERN OHIO/WEST VIRGINIA...

CITY           SKY/WX    TMP DP  RH WIND       PRES   REMARKS
COVINGTON      MOCLDY    52  39  61 N6        30.26S
COLUMBUS       CLOUDY    50  39  66 N9        30.24F
DAYTON         CLOUDY    50  41  71 NE9       30.28F
WILMINGTON     CLOUDY    49  40  71 N14       30.26S
HUNTINGTON     CLOUDY    50  43  77 N8        30.22S
CHARLESTON     CLOUDY    50  44  80 NW6       30.19F
PINEVILLE*     CLOUDY    47  47  99 MISG      30.24R
BECKLEY        LGT RAIN  44  41  89 NW10      30.16S
BLUEFIELD      CLOUDY    44  40  85 NW7       30.16S
$$

VAZ002-007-008-TNZ017-027-036-066-071-222300
...SOUTHWEST VIRGINIA/EAST TENNESSEE...

CITY           SKY/WX    TMP DP  RH WIND       PRES   REMARKS
WISE*          DRIZZLE   43  43 100 NW7       30.21S
JONESVILLE*    CLOUDY    48  39  71 CALM      30.24S
ABINGDON*      CLOUDY    46  42  84 N8        30.19R
BRISTOL        CLOUDY    49  41  74 N5        30.20S
KNOXVILLE      PTCLDY    58  40  51 N12       30.16S
OAK RIDGE      CLEAR     58  41  53 VRB5      30.19S
CROSSVILLE     CLEAR     58  38  47 NE10      30.18S
NASHVILLE      SUNNY     62  40  44 NE10      30.20S
$$

...KEY TO REMARKS...
VSB - VISIBILITY IN MILES
WCI - WIND CHILL INDEX
HX  - HEAT INDEX

$$



USA.gov is the U.S. government's official web portal to all federal, state and local government web resources and services.